Location: Cantaing
(50.1487°N, 3.1675°E)
Time: 22:29:55
(UTC+00:00)

Cosmos 2082 Rocket - Pass Details

Date: 20 April 2026
Orbit: 831 x 853 km, 71.0° (Epoch: 19 May)

Event Time Altitude Azimuth Distance (km) Brightness Sun altitude
Exits shadow 23:32:33 14° 90° (E) 2,182 4.3 -28.0°
Drops below altitude 10° 23:35:00 10° 65° (ENE) 2,489 4.9 -28.0°
Sets 23:38:35 0° 43° (NE) 3,432 6.0 -28.0°
